EW2295 Weather Reports


time (UTC)temp
C
wind
direction
speed
KPH
gust
KPH
rain 1hr
cm
rain 24hr
cm
rain mn
cm
humidity
%
barometer
mb
20260905105045 18 246 6.4 30.6 0.00 0.30 0.00 70 1021.6
20260905104617 18 207 6.4 30.6 0.00 0.30 0.00 69 1021.7
20260905104045 18 234 8.0 33.8 0.00 0.30 0.00 71 1021.5
20260905103542 18 221 8.0 35.4 0.00 0.30 0.00 70 1021.4
20260905103106 18 0 14.5 35.4 0.00 0.30 0.00 70 1021.5
20260905102542 18 230 1.6 27.4 0.00 0.30 0.00 71 1021.4
20260905102045 18 219 4.8 24.1 0.00 0.30 0.00 72 1021.5
20260905101610 18 232 3.2 27.4 0.00 0.30 0.00 73 1021.3
20260905101042 18 212 8.0 30.6 0.00 0.30 0.00 71 1021.4
20260905100545 18 0 14.5 32.2 0.00 0.30 0.00 71 1021.3
20260905100114 18 217 9.7 32.2 0.00 0.30 0.00 71 1021.3
20260905095545 18 0 8.0 32.2 0.00 0.30 0.00 73 1021.2
20260905095045 18 0 3.2 27.4 0.00 0.30 0.00 72 1021.2
20260905094555 18 219 6.4 30.6 0.00 0.30 0.00 73 1021.2
20260905094044 18 0 4.8 33.8 0.00 0.30 0.00 74 1021.1
20260905093545 18 226 9.7 33.8 0.00 0.30 0.00 73 1021.2
20260905093106 18 230 11.3 27.4 0.00 0.30 0.00 75 1021.1
20260905092550 17 244 11.3 25.7 0.00 0.30 0.00 76 1021.0
20260905092044 17 241 3.2 30.6 0.00 0.30 0.00 77 1021.1
20260905091603 17 225 4.8 30.6 0.00 0.30 0.00 75 1021.0
20260905091042 18 0 1.6 30.6 0.00 0.30 0.00 77 1021.0
20260905090545 17 205 4.8 22.5 0.00 0.30 0.00 77 1021.0
20260905090135 17 0 3.2 27.4 0.00 0.30 0.00 78 1020.9
20260905085546 17 0 3.2 27.4 0.00 0.30 0.00 80 1020.9
20260905085049 17 233 3.2 27.4 0.00 0.30 0.00 80 1021.0
20260905084602 17 0 4.8 24.1 0.00 0.30 0.00 79 1020.8
20260905084042 17 212 4.8 25.7 0.00 0.30 0.00 80 1020.8
20260905083544 17 225 4.8 25.7 0.00 0.30 0.00 81 1020.7
20260905083103 17 232 6.4 25.7 0.00 0.30 0.00 81 1020.6
20260905082544 17 0 4.8 20.9 0.00 0.30 0.00 80 1020.5
20260905082045 17 0 4.8 27.4 0.00 0.30 0.00 80 1020.5
20260905081603 17 0 0.0 27.4 0.00 0.30 0.00 80 1020.5
20260905081045 17 215 4.8 19.3 0.00 0.30 0.00 80 1020.5
20260905080545 17 0 4.8 19.3 0.00 0.30 0.00 82 1020.5
20260905075546 16 254 4.8 19.3 0.00 0.30 0.00 81 1020.4
20260905075043 17 0 3.2 19.3 0.00 0.30 0.00 80 1020.3
20260905074606 17 231 4.8 17.7 0.00 0.30 0.00 81 1020.3
20260905074046 17 242 1.6 16.1 0.00 0.30 0.00 82 1020.3
20260905073542 17 199 3.2 22.5 0.00 0.30 0.00 82 1020.1
20260905073102 16 234 0.0 22.5 0.00 0.30 0.00 84 1020.1
20260905072547 16 224 1.6 17.7 0.00 0.30 0.00 83 1020.0
20260905072042 16 236 0.0 16.1 0.00 0.30 0.00 85 1020.0
20260905071616 16 260 4.8 22.5 0.00 0.30 0.00 85 1020.0
20260905071042 16 221 1.6 22.5 0.00 0.30 0.00 85 1020.0
20260905070546 15 210 1.6 17.7 0.00 0.30 0.00 87 1019.9
20260905070108 15 247 3.2 17.7 0.00 0.30 0.00 87 1019.8
20260905065546 15 237 3.2 12.9 0.00 0.30 0.00 88 1019.8
20260905065042 15 0 0.0 12.9 0.00 0.30 0.00 88 1019.7
20260905064603 15 209 3.2 16.1 0.00 0.30 0.00 90 1019.7
20260905064046 15 0 1.6 22.5 0.00 0.30 0.00 89 1019.6
20260905063545 15 0 4.8 22.5 0.00 0.30 0.00 90 1019.6
20260905063058 14 227 0.0 19.3 0.00 0.30 0.00 91 1019.4
20260905062542 14 211 1.6 20.9 0.00 0.30 0.00 91 1019.4
20260905062045 14 221 8.0 20.9 0.00 0.30 0.00 92 1019.4
20260905061557 14 0 1.6 11.3 0.00 0.30 0.00 92 1019.3
20260905061042 14 225 0.0 12.9 0.00 0.30 0.00 92 1019.3
20260905060541 14 0 1.6 14.5 0.00 0.30 0.00 92 1019.3
20260905060105 13 227 0.0 14.5 0.00 0.30 0.00 93 1019.3
20260905055544 13 0 0.0 11.3 0.00 0.30 0.00 94 1019.3
20260905055044 13 0 0.0 11.3 0.00 0.30 0.00 94 1019.3
20260905054608 13 0 0.0 11.3 0.00 0.30 0.00 94 1019.2
20260905054045 13 0 0.0 11.3 0.00 0.30 0.00 94 1019.1
20260905053546 13 0 0.0 8.0 0.00 0.30 0.00 94 1019.1
20260905053101 13 0 0.0 8.0 0.00 0.30 0.00 94 1019.0
20260905052544 13 0 0.0 12.9 0.00 0.30 0.00 94 1019.0
20260905052045 13 0 0.0 12.9 0.00 0.30 0.00 94 1019.0
20260905051604 13 0 0.0 12.9 0.00 0.30 0.00 94 1018.9
20260905051042 13 0 0.0 0.0 0.00 0.30 0.00 95 1018.9
20260905050542 13 0 0.0 0.0 0.00 0.28 0.00 95 1018.8
20260905045542 13 0 0.0 0.0 0.00 0.28 0.00 95 1018.7
20260905045044 13 0 0.0 1.6 0.00 0.28 0.00 95 1018.7
20260905044604 13 0 0.0 1.6 0.00 0.28 0.00 95 1018.6
20260905044042 13 0 0.0 0.0 0.00 0.28 0.00 95 1018.6
20260905043545 13 0 0.0 9.7 0.00 0.28 0.00 95 1018.4
20260905043059 13 0 0.0 9.7 0.00 0.28 0.00 96 1018.3
20260905042545 13 0 0.0 8.0 0.00 0.28 0.00 96 1018.3
20260905042041 13 0 0.0 8.0 0.00 0.28 0.00 96 1018.2
20260905041607 13 0 0.0 6.4 0.00 0.28 0.00 96 1018.1
20260905041044 12 0 0.0 6.4 0.00 0.28 0.00 96 1018.0
20260905040541 12 0 0.0 6.4 0.00 0.28 0.00 96 1018.0
20260905040106 12 0 0.0 4.8 0.00 0.28 0.00 96 1018.0
20260905035547 12 0 0.0 4.8 0.00 0.28 0.00 96 1018.1
20260905035046 12 0 0.0 0.0 0.00 0.28 0.00 96 1018.0
20260905034616 12 0 0.0 8.0 0.00 0.28 0.00 96 1018.1
20260905034046 12 0 0.0 8.0 0.00 0.28 0.00 96 1018.1
20260905033545 12 0 0.0 8.0 0.00 0.28 0.00 96 1018.0
20260905033116 12 0 0.0 0.0 0.00 0.28 0.00 96 1018.0
20260905032547 12 0 0.0 0.0 0.00 0.28 0.00 96 1018.0
20260905032046 12 0 0.0 0.0 0.00 0.28 0.00 96 1018.0
20260905031614 12 0 0.0 0.0 0.00 0.28 0.00 96 1018.0
20260905031048 12 0 0.0 0.0 0.00 0.28 0.00 96 1018.1
20260905030546 12 0 0.0 0.0 0.00 0.28 0.00 96 1018.0
20260905030106 12 0 0.0 0.0 0.00 0.28 0.00 96 1018.0
20260905025545 12 0 0.0 0.0 0.00 0.28 0.00 96 1018.0
20260905025049 12 0 0.0 0.0 0.00 0.28 0.00 96 1018.0
20260905024605 12 0 0.0 0.0 0.00 0.28 0.00 96 1018.0
20260905024045 12 0 0.0 0.0 0.00 0.28 0.00 96 1018.0
20260905023548 12 0 0.0 0.0 0.00 0.28 0.00 96 1018.0
20260905023107 12 0 0.0 0.0 0.00 0.28 0.00 96 1017.9
20260905022550 12 0 0.0 0.0 0.00 0.28 0.00 96 1017.8
20260905022046 12 0 0.0 0.0 0.00 0.28 0.00 96 1017.9
20260905021604 12 0 0.0 0.0 0.00 0.28 0.00 96 1017.8
20260905021046 12 0 0.0 0.0 0.00 0.28 0.00 96 1017.8
20260905020546 12 0 0.0 0.0 0.00 0.28 0.00 96 1017.7
20260905020105 12 0 0.0 0.0 0.00 0.28 0.00 96 1017.8
20260905015546 12 0 0.0 0.0 0.00 0.28 0.00 96 1017.6
20260905015046 12 0 0.0 0.0 0.00 0.28 0.00 96 1017.6
20260905014614 12 0 0.0 0.0 0.00 0.28 0.00 96 1017.6
20260905014046 12 0 0.0 0.0 0.00 0.28 0.00 96 1017.5
20260905013547 12 0 0.0 0.0 0.00 0.28 0.00 96 1017.5
20260905013120 12 0 0.0 0.0 0.00 0.28 0.00 96 1017.6
20260905012546 12 0 0.0 0.0 0.00 0.28 0.00 96 1017.6
20260905012045 12 0 0.0 0.0 0.00 0.28 0.00 96 1017.6
20260905011601 12 0 0.0 0.0 0.00 0.28 0.00 96 1017.6
20260905011046 12 0 0.0 0.0 0.00 0.28 0.00 96 1017.6
20260905010547 12 0 0.0 0.0 0.00 0.28 0.00 96 1017.6
20260905010100 12 0 0.0 0.0 0.00 0.28 0.00 96 1017.6
20260905005546 12 0 0.0 0.0 0.00 0.28 0.00 96 1017.5
20260905005048 12 0 0.0 0.0 0.00 0.28 0.00 96 1017.6
20260905004711 12 0 0.0 0.0 0.00 0.28 0.00 96 1017.6
20260905004046 12 0 0.0 0.0 0.00 0.28 0.00 96 1017.6
20260905003546 13 0 0.0 0.0 0.00 0.28 0.00 96 1017.7
20260905003101 13 0 0.0 0.0 0.00 0.28 0.00 96 1017.7
20260905002545 13 0 0.0 0.0 0.00 0.28 0.00 96 1017.6
20260905002050 13 0 0.0 0.0 0.00 0.28 0.00 96 1017.6
20260905001609 13 0 0.0 0.0 0.00 0.28 0.00 96 1017.8
20260905001046 13 0 0.0 0.0 0.00 0.28 0.00 96 1017.6
20260905000546 13 0 0.0 0.0 0.00 0.28 0.00 96 1017.6
20260905000107 13 0 0.0 0.0 0.00 0.28 0.00 96 1017.6
20260904235546 13 0 0.0 0.0 0.00 0.28 0.00 96 1017.7
20260904235047 13 0 0.0 0.0 0.00 0.28 0.00 96 1017.5
20260904234604 13 0 0.0 0.0 0.00 0.28 0.00 96 1017.5
20260904234046 13 0 0.0 0.0 0.00 0.28 0.00 96 1017.6
20260904233546 13 0 0.0 0.0 0.00 0.28 0.00 95 1017.5
20260904233105 13 0 0.0 0.0 0.00 0.28 0.00 96 1017.4
20260904232546 13 0 0.0 0.0 0.00 0.28 0.00 95 1017.4
20260904232048 13 0 0.0 0.0 0.00 0.28 0.00 95 1017.4
20260904231606 13 0 0.0 0.0 0.00 0.28 0.00 95 1017.3
20260904231046 14 0 0.0 0.0 0.00 0.28 0.00 95 1017.3
20260904230546 14 0 0.0 0.0 0.00 0.28 0.00 95 1017.3
20260904230110 14 0 0.0 0.0 0.00 0.28 0.00 95 1017.3
20260904225547 14 0 0.0 0.0 0.00 0.28 0.00 95 1017.2
20260904225050 14 0 0.0 0.0 0.00 0.28 0.00 95 1017.2
20260904224605 15 0 0.0 0.0 0.00 0.28 0.00 95 1017.2
20260904224046 15 0 0.0 0.0 0.00 0.28 0.00 95 1017.2
20260904223545 15 0 0.0 0.0 0.00 0.28 0.00 95 1017.1
20260904223109 15 0 0.0 0.0 0.00 0.28 0.00 95 1017.1
20260904222546 15 0 0.0 0.0 0.00 0.28 0.00 95 1017.0
20260904222045 15 0 0.0 0.0 0.00 0.28 0.00 95 1017.0
20260904221606 15 0 0.0 1.6 0.00 0.28 0.00 95 1016.9
20260904221046 15 0 0.0 1.6 0.00 0.28 0.00 95 1016.8
20260904220547 15 0 0.0 1.6 0.00 0.28 0.00 95 1016.8
20260904220107 15 0 0.0 1.6 0.00 0.28 0.00 95 1016.8
20260904215546 15 0 0.0 1.6 0.00 0.28 0.28 95 1016.7
20260904215046 15 0 0.0 0.0 0.00 0.28 0.28 95 1016.6
20260904214613 15 0 0.0 0.0 0.00 0.28 0.28 95 1016.7
20260904214046 15 0 0.0 0.0 0.00 0.28 0.28 95 1016.5
20260904213546 15 0 0.0 0.0 0.00 0.28 0.28 95 1016.4
20260904213108 15 0 0.0 6.4 0.00 0.28 0.28 95 1016.5
20260904212546 15 0 0.0 6.4 0.00 0.28 0.28 95 1016.3
20260904212042 15 0 0.0 0.0 0.00 0.28 0.28 95 1016.4
20260904211602 15 0 0.0 9.7 0.00 0.28 0.28 95 1016.3
20260904211046 15 0 0.0 9.7 0.00 0.28 0.28 95 1016.2
20260904210550 15 0 0.0 9.7 0.00 0.28 0.28 95 1016.1
20260904210108 15 0 0.0 14.5 0.00 0.28 0.28 95 1016.1
20260904205549 15 0 1.6 14.5 0.00 0.28 0.28 95 1016.0
20260904205045 15 0 1.6 14.5 0.00 0.28 0.28 95 1016.1
20260904204609 15 0 0.0 14.5 0.00 0.28 0.28 95 1016.1
20260904204048 15 0 0.0 14.5 0.00 0.28 0.28 95 1016.0
20260904203546 15 0 0.0 14.5 0.00 0.28 0.28 95 1015.9
20260904203104 15 0 0.0 17.7 0.00 0.28 0.28 95 1015.8
20260904202545 16 0 1.6 17.7 0.00 0.28 0.28 95 1015.8
20260904202046 16 241 0.0 11.3 0.00 0.28 0.28 95 1015.9
20260904201601 16 0 0.0 12.9 0.00 0.28 0.28 95 1016.0
20260904201046 16 0 0.0 14.5 0.00 0.28 0.28 95 1016.0
20260904200547 15 0 0.0 14.5 0.00 0.28 0.28 95 1015.8
20260904200120 16 0 0.0 16.1 0.00 0.28 0.28 95 1015.9
20260904195549 16 0 0.0 16.1 0.00 0.28 0.28 95 1015.8
20260904195045 16 0 3.2 14.5 0.00 0.28 0.28 95 1015.9
20260904194609 16 0 0.0 11.3 0.00 0.28 0.28 95 1015.7
20260904194046 16 0 0.0 11.3 0.00 0.28 0.28 95 1015.6
20260904193545 16 0 0.0 11.3 0.00 0.28 0.28 96 1015.6
20260904193106 16 0 0.0 8.0 0.00 0.28 0.28 95 1015.7
20260904192546 16 0 0.0 6.4 0.00 0.28 0.28 96 1015.5
20260904192048 16 0 0.0 11.3 0.00 0.28 0.28 95 1015.4
20260904191605 16 0 0.0 11.3 0.00 0.28 0.28 95 1015.1
20260904191046 16 0 1.6 16.1 0.00 0.28 0.28 95 1015.1
20260904190546 16 0 0.0 16.1 0.00 0.28 0.28 95 1015.1
20260904190106 16 0 1.6 12.9 0.00 0.28 0.28 95 1015.1
20260904185546 16 211 0.0 12.9 0.00 0.28 0.28 95 1015.0
20260904185046 16 0 0.0 16.1 0.00 0.28 0.28 95 1015.0
20260904184614 16 234 1.6 16.1 0.00 0.28 0.28 95 1014.7
20260904184045 16 223 1.6 14.5 0.00 0.28 0.28 96 1014.6
20260904183549 16 239 1.6 14.5 0.00 0.28 0.28 95 1014.5
20260904183056 16 0 0.0 14.5 0.00 0.28 0.28 95 1014.4
20260904182545 16 239 0.0 14.5 0.00 0.28 0.28 95 1014.2
20260904182046 16 0 3.2 12.9 0.00 0.28 0.28 95 1014.2
20260904181613 16 0 0.0 14.5 0.00 0.28 0.28 95 1014.0
20260904181045 16 0 0.0 14.5 0.00 0.28 0.28 95 1014.0
20260904180547 16 236 0.0 12.9 0.00 0.28 0.28 95 1013.9
20260904180100 16 0 0.0 17.7 0.00 0.28 0.28 95 1013.7
20260904175545 16 0 3.2 17.7 0.00 0.28 0.28 95 1013.8
20260904175045 16 0 3.2 17.7 0.00 0.28 0.28 95 1013.8
20260904174604 16 238 0.0 16.1 0.00 0.28 0.28 95 1013.8
20260904174046 16 0 1.6 16.1 0.00 0.28 0.28 95 1013.7
20260904173545 16 0 3.2 14.5 0.00 0.28 0.28 95 1013.6
20260904173101 16 0 1.6 16.1 0.00 0.28 0.28 95 1013.5
20260904172547 16 0 0.0 16.1 0.03 0.28 0.28 95 1013.5
20260904172048 16 243 1.6 14.5 0.10 0.28 0.28 95 1013.6
20260904171619 16 239 0.0 16.1 0.13 0.28 0.28 95 1013.7
20260904171046 16 0 0.0 16.1 0.13 0.28 0.28 95 1013.6
20260904170545 16 0 0.0 16.1 0.13 0.28 0.28 95 1013.6
20260904170100 16 250 1.6 16.1 0.13 0.28 0.28 95 1013.5
20260904165547 16 214 4.8 16.1 0.13 0.28 0.28 95 1013.6
20260904165046 16 0 0.0 24.1 0.13 0.28 0.28 95 1013.5
20260904164618 16 0 3.2 24.1 0.13 0.28 0.28 95 1013.5
20260904164046 16 0 0.0 17.7 0.13 0.28 0.28 95 1013.4
20260904163546 16 237 3.2 17.7 0.15 0.28 0.28 95 1013.2
20260904163101 16 246 0.0 20.9 0.13 0.28 0.28 95 1013.4
20260904162547 16 266 3.2 20.9 0.13 0.25 0.25 94 1013.6
20260904162045 16 217 0.0 22.5 0.05 0.18 0.18 94 1013.4
20260904161610 16 252 1.6 22.5 0.03 0.15 0.15 94 1013.4
20260904161045 16 277 1.6 17.7 0.05 0.15 0.15 94 1013.4
20260904160546 16 0 0.0 20.9 0.08 0.15 0.15 94 1013.3
20260904160108 16 217 1.6 29.0 0.15 0.15 0.15 94 1013.3
20260904155544 17 272 4.8 29.0 0.15 0.15 0.15 94 1013.3
20260904155045 17 0 3.2 22.5 0.15 0.15 0.15 94 1013.3
20260904154604 17 217 3.2 22.5 0.15 0.15 0.15 94 1013.2
20260904154046 17 309 1.6 25.7 0.15 0.15 0.15 94 1013.4
20260904153545 17 252 6.4 30.6 0.13 0.13 0.13 93 1013.4
20260904153112 17 238 3.2 30.6 0.13 0.13 0.13 92 1013.4
20260904152545 17 0 8.0 30.6 0.10 0.10 0.10 92 1013.2
20260904152043 17 253 3.2 40.2 0.10 0.10 0.10 92 1013.0
20260904151559 17 0 4.8 40.2 0.10 0.10 0.10 91 1012.7
20260904151045 18 266 3.2 35.4 0.08 0.08 0.08 89 1012.7
20260904150546 18 0 4.8 35.4 0.05 0.05 0.05 87 1012.6
20260904150100 20 340 6.4 29.0 0.00 0.00 0.00 85 1012.4
20260904145546 21 219 3.2 32.2 0.00 0.00 0.00 84 1012.1
20260904145046 21 227 3.2 45.1 0.00 0.00 0.00 82 1011.9
20260904144606 22 258 12.9 45.1 0.00 0.00 0.00 78 1011.7
20260904144045 22 255 8.0 33.8 0.00 0.00 0.00 76 1011.7
20260904143545 22 202 6.4 37.0 0.00 0.00 0.00 76 1011.3
20260904143107 22 248 17.7 37.0 0.00 0.00 0.00 75 1011.4
20260904142545 22 0 3.2 37.0 0.00 0.00 0.00 75 1011.3
20260904142046 22 0 8.0 38.6 0.00 0.00 0.00 75 1011.4
20260904141558 22 205 17.7 38.6 0.00 0.00 0.00 75 1011.4
20260904141045 23 214 11.3 37.0 0.00 0.00 0.00 75 1011.6
20260904140543 22 223 11.3 41.8 0.00 0.00 0.00 76 1011.4
20260904140105 22 0 12.9 45.1 0.00 0.00 0.00 76 1011.4
20260904135546 22 221 16.1 56.3 0.00 0.00 0.00 75 1011.7
20260904135045 23 248 19.3 56.3 0.00 0.00 0.00 74 1011.6
20260904134606 23 248 17.7 48.3 0.00 0.00 0.00 73 1011.4
20260904134050 23 247 14.5 41.8 0.00 0.00 0.00 72 1011.4
20260904133544 23 238 12.9 41.8 0.00 0.00 0.00 73 1011.3
20260904133116 23 245 17.7 40.2 0.00 0.00 0.00 72 1011.4
20260904132546 23 251 8.0 33.8 0.00 0.00 0.00 72 1011.5
20260904132045 23 219 8.0 35.4 0.00 0.00 0.00 74 1011.4
20260904131607 22 212 3.2 35.4 0.00 0.00 0.00 73 1011.4
20260904131043 22 0 8.0 49.9 0.00 0.00 0.00 73 1011.3
20260904130544 23 245 17.7 49.9 0.00 0.00 0.00 72 1011.4
20260904130108 23 243 12.9 37.0 0.00 0.00 0.00 70 1011.4
20260904125545 23 250 4.8 35.4 0.00 0.00 0.00 71 1011.3
20260904125045 23 225 12.9 53.1 0.00 0.00 0.00 71 1011.3
20260904124605 23 287 20.9 53.1 0.00 0.00 0.00 69 1011.3
20260904124045 23 220 14.5 37.0 0.00 0.00 0.00 68 1011.2
20260904123546 24 246 4.8 40.2 0.00 0.00 0.00 68 1011.4
20260904123059 24 244 9.7 40.2 0.00 0.00 0.00 67 1011.2
20260904122546 24 286 11.3 35.4 0.00 0.00 0.00 69 1011.4
20260904122046 23 0 4.8 35.4 0.00 0.00 0.00 70 1011.4
20260904121605 23 0 12.9 38.6 0.00 0.00 0.00 68 1011.4
20260904121045 23 238 19.3 40.2 0.00 0.00 0.00 69 1011.4
20260904120546 23 248 14.5 40.2 0.00 0.00 0.00 71 1011.5
20260904120104 23 225 17.7 46.7 0.00 0.00 0.00 70 1011.6
20260904115546 23 0 19.3 46.7 0.00 0.00 0.00 71 1011.5
20260904115046 23 220 12.9 38.6 0.00 0.00 0.00 71 1011.6
20260904114608 23 286 8.0 43.5 0.00 0.00 0.00 72 1011.8
20260904114044 22 236 12.9 43.5 0.00 0.00 0.00 73 1011.7
20260904113546 22 243 16.1 43.5 0.00 0.00 0.00 73 1011.8
20260904113106 22 214 11.3 37.0 0.00 0.00 0.00 74 1011.9
20260904112546 22 250 6.4 37.0 0.00 0.00 0.00 74 1011.9
20260904112043 22 249 9.7 41.8 0.00 0.00 0.00 74 1011.8
20260904111604 22 0 17.7 41.8 0.00 0.00 0.00 73 1012.0
20260904111045 22 246 12.9 41.8 0.00 0.00 0.00 73 1012.0
20260904110545 22 218 17.7 41.8 0.00 0.00 0.00 73 1012.0
20260904110108 22 242 6.4 38.6 0.00 0.00 0.00 74 1012.2
20260904105547 22 250 12.9 38.6 0.00 0.00 0.00 74 1012.0